Time,TemperatureF,DewpointF,PressureIn,WindDirection,WindDirectionDegrees,WindSpeedMPH,WindSpeedGustMPH,Humidity,HourlyPrecipIn,Conditions,Clouds,dailyrainin,SoftwareType,DateUTC
2013-11-24 00:11:00,32.0,30.0,30.14,SSW,198,0.0,-999.0,94,-99.99,,,-99.99,,2013-11-24 07:11:00,
2013-11-24 00:21:00,32.0,30.0,30.14,SSW,198,1.0,-999.0,94,-99.99,,,-99.99,,2013-11-24 07:21:00,
2013-11-24 00:42:00,32.0,30.0,30.12,SSW,198,0.0,-999.0,94,-99.99,,,-99.99,,2013-11-24 07:42:00,
2013-11-24 00:52:00,32.0,30.0,30.12,SSW,198,1.0,-999.0,94,-99.99,,,-99.99,,2013-11-24 07:52:00,
2013-11-24 01:21:00,31.0,29.0,30.13,East,86,2.0,-999.0,93,-99.99,,,-99.99,,2013-11-24 08:21:00,
2013-11-24 01:42:00,31.0,29.0,30.12,ESE,110,2.0,-999.0,93,-99.99,,,-99.99,,2013-11-24 08:42:00,
2013-11-24 01:53:00,31.0,29.0,30.11,ENE,73,3.0,-999.0,93,-99.99,,,-99.99,,2013-11-24 08:53:00,
2013-11-24 02:11:00,31.0,29.0,30.11,ENE,72,3.0,-999.0,93,-99.99,,,-99.99,,2013-11-24 09:11:00,
2013-11-24 02:21:00,31.0,29.0,30.13,ENE,72,2.0,-999.0,93,-99.99,,,-99.99,,2013-11-24 09:21:00,
2013-11-24 02:43:00,31.0,29.0,30.12,ENE,70,3.0,-999.0,93,-99.99,,,-99.99,,2013-11-24 09:43:00,
2013-11-24 02:53:00,30.0,28.0,30.11,ENE,63,3.0,-999.0,93,-99.99,,,-99.99,,2013-11-24 09:53:00,
2013-11-24 03:23:00,30.0,28.0,30.12,ENE,65,2.0,-999.0,93,-99.99,,,-99.99,,2013-11-24 10:23:00,
2013-11-24 03:43:00,30.0,28.0,30.13,ENE,65,2.0,-999.0,93,-99.99,,,-99.99,,2013-11-24 10:43:00,
2013-11-24 03:53:00,30.0,28.0,30.13,ENE,65,0.0,-999.0,93,-99.99,,,-99.99,,2013-11-24 10:53:00,
2013-11-24 04:21:00,30.0,28.0,30.12,ENE,65,0.0,-999.0,93,-99.99,,,-99.99,,2013-11-24 11:21:00,
2013-11-24 04:42:00,30.0,28.0,30.14,ENE,65,0.0,-999.0,93,-99.99,,,-99.99,,2013-11-24 11:42:00,
2013-11-24 04:53:00,29.0,27.0,30.12,ENE,65,0.0,-999.0,93,-99.99,,,-99.99,,2013-11-24 11:53:00,
2013-11-24 05:12:00,30.0,28.0,30.12,ENE,65,0.0,-999.0,93,-99.99,,,-99.99,,2013-11-24 12:12:00,
2013-11-24 05:21:00,30.0,28.0,30.12,ENE,65,0.0,-999.0,93,-99.99,,,-99.99,,2013-11-24 12:21:00,
2013-11-24 05:42:00,30.0,28.0,30.14,ENE,65,0.0,-999.0,93,-99.99,,,-99.99,,2013-11-24 12:42:00,
2013-11-24 05:53:00,30.0,28.0,30.14,ENE,65,0.0,-999.0,93,-99.99,,,-99.99,,2013-11-24 12:53:00,
2013-11-24 06:21:00,29.0,27.0,30.13,ENE,65,0.0,-999.0,93,-99.99,,,-99.99,,2013-11-24 13:21:00,
2013-11-24 06:32:00,29.0,27.0,30.13,ENE,65,0.0,-999.0,93,-99.99,,,-99.99,,2013-11-24 13:32:00,
2013-11-24 06:42:00,29.0,27.0,30.13,ENE,65,0.0,-999.0,93,-99.99,,,-99.99,,2013-11-24 13:42:00,
2013-11-24 06:52:00,29.0,27.0,30.15,ENE,65,0.0,-999.0,93,-99.99,,,-99.99,,2013-11-24 13:52:00,
2013-11-24 07:11:00,29.0,27.0,30.15,ENE,65,0.0,-999.0,93,-99.99,,,-99.99,,2013-11-24 14:11:00,
2013-11-24 07:21:00,29.0,27.0,30.15,ENE,65,0.0,-999.0,93,-99.99,,,-99.99,,2013-11-24 14:21:00,
2013-11-24 07:42:00,29.0,27.0,30.15,ENE,65,0.0,-999.0,93,-99.99,,,-99.99,,2013-11-24 14:42:00,
2013-11-24 07:53:00,29.0,27.0,30.16,ENE,65,0.0,-999.0,93,-99.99,,,-99.99,,2013-11-24 14:53:00,
2013-11-24 09:23:00,28.0,25.0,30.13,SSE,158,0.0,-999.0,88,-99.99,,,-99.99,,2013-11-24 16:23:00,
2013-11-24 09:42:00,28.0,25.0,30.18,SE,143,3.0,-999.0,88,-99.99,,,-99.99,,2013-11-24 16:42:00,
2013-11-24 09:53:00,28.0,25.0,30.18,SE,146,2.0,-999.0,88,-99.99,,,-99.99,,2013-11-24 16:53:00,
2013-11-24 10:12:00,28.0,25.0,30.18,ESE,107,2.0,-999.0,88,-99.99,,,-99.99,,2013-11-24 17:12:00,
2013-11-24 10:22:00,28.0,25.0,30.17,East,86,3.0,-999.0,88,-99.99,,,-99.99,,2013-11-24 17:22:00,
2013-11-24 10:42:00,28.0,25.0,30.17,East,88,4.0,-999.0,88,-99.99,,,-99.99,,2013-11-24 17:42:00,
2013-11-24 10:52:00,29.0,26.0,30.17,East,101,3.0,-999.0,88,-99.99,,,-99.99,,2013-11-24 17:52:00,
2013-11-24 11:12:00,29.0,26.0,30.16,ESE,115,3.0,-999.0,87,-99.99,,,-99.99,,2013-11-24 18:12:00,
2013-11-24 11:21:00,28.0,24.0,30.16,ESE,123,4.0,-999.0,86,-99.99,,,-99.99,,2013-11-24 18:21:00,
2013-11-24 11:42:00,28.0,24.0,30.16,SE,127,3.0,-999.0,85,-99.99,,,-99.99,,2013-11-24 18:42:00,
2013-11-24 11:52:00,29.0,25.0,30.15,ESE,114,2.0,-999.0,84,-99.99,,,-99.99,,2013-11-24 18:52:00,
2013-11-24 12:11:00,29.0,25.0,30.14,SSE,153,2.0,-999.0,83,-99.99,,,-99.99,,2013-11-24 19:11:00,
2013-11-24 12:21:00,29.0,24.0,30.14,SSE,155,2.0,-999.0,82,-99.99,,,-99.99,,2013-11-24 19:21:00,
2013-11-24 12:42:00,29.0,24.0,30.13,SE,146,3.0,-999.0,80,-99.99,,,-99.99,,2013-11-24 19:42:00,
2013-11-24 12:52:00,29.0,24.0,30.14,SE,141,4.0,-999.0,80,-99.99,,,-99.99,,2013-11-24 19:52:00,
2013-11-24 13:11:00,29.0,24.0,30.13,SSE,155,3.0,-999.0,81,-99.99,,,-99.99,,2013-11-24 20:11:00,
2013-11-24 13:22:00,29.0,24.0,30.12,SSE,148,3.0,-999.0,81,-99.99,,,-99.99,,2013-11-24 20:22:00,
2013-11-24 13:42:00,29.0,24.0,30.10,SSE,165,3.0,-999.0,80,-99.99,,,-99.99,,2013-11-24 20:42:00,
2013-11-24 13:52:00,29.0,24.0,30.11,SSE,155,2.0,-999.0,81,-99.99,,,-99.99,,2013-11-24 20:52:00,
2013-11-24 14:11:00,29.0,25.0,30.11,SSE,151,2.0,-999.0,84,-99.99,,,-99.99,,2013-11-24 21:11:00,
2013-11-24 14:21:00,28.0,24.0,30.10,SSE,162,2.0,-999.0,84,-99.99,,,-99.99,,2013-11-24 21:21:00,
2013-11-24 14:43:00,28.0,24.0,30.11,SSE,162,0.0,-999.0,86,-99.99,,,-99.99,,2013-11-24 21:43:00,
2013-11-24 14:54:00,28.0,25.0,30.11,SSE,162,0.0,-999.0,87,-99.99,,,-99.99,,2013-11-24 21:54:00,
2013-11-24 15:12:00,28.0,25.0,30.11,SSE,162,0.0,-999.0,87,-99.99,,,-99.99,,2013-11-24 22:12:00,
2013-11-24 15:23:00,28.0,25.0,30.11,SSE,162,0.0,-999.0,87,-99.99,,,-99.99,,2013-11-24 22:23:00,
2013-11-24 15:43:00,28.0,25.0,30.11,SSE,162,0.0,-999.0,88,-99.99,,,-99.99,,2013-11-24 22:43:00,
2013-11-24 15:52:00,28.0,25.0,30.12,SSE,162,0.0,-999.0,88,-99.99,,,-99.99,,2013-11-24 22:52:00,
2013-11-24 16:12:00,28.0,25.0,30.12,SSE,162,0.0,-999.0,88,-99.99,,,-99.99,,2013-11-24 23:12:00,
2013-11-24 16:22:00,28.0,25.0,30.12,SSE,162,0.0,-999.0,88,-99.99,,,-99.99,,2013-11-24 23:22:00,
2013-11-24 16:42:00,28.0,25.0,30.12,SSE,162,0.0,-999.0,88,-99.99,,,-99.99,,2013-11-24 23:42:00,
2013-11-24 16:52:00,28.0,25.0,30.11,SSE,162,0.0,-999.0,88,-99.99,,,-99.99,,2013-11-24 23:52:00,
2013-11-24 17:12:00,28.0,25.0,30.11,SSE,162,0.0,-999.0,88,-99.99,,,-99.99,,2013-11-25 00:12:00,
2013-11-24 17:22:00,28.0,25.0,30.11,SSE,162,0.0,-999.0,88,-99.99,,,-99.99,,2013-11-25 00:22:00,
2013-11-24 17:42:00,28.0,25.0,30.11,SSE,162,0.0,-999.0,89,-99.99,,,-99.99,,2013-11-25 00:42:00,
2013-11-24 17:52:00,28.0,25.0,30.11,SSE,162,0.0,-999.0,89,-99.99,,,-99.99,,2013-11-25 00:52:00,
2013-11-24 18:11:00,28.0,25.0,30.11,SSE,162,0.0,-999.0,89,-99.99,,,-99.99,,2013-11-25 01:11:00,
2013-11-24 18:21:00,27.0,24.0,30.11,SSE,162,0.0,-999.0,90,-99.99,,,-99.99,,2013-11-25 01:21:00,
2013-11-24 18:42:00,27.0,24.0,30.10,SSE,162,0.0,-999.0,90,-99.99,,,-99.99,,2013-11-25 01:42:00,
2013-11-24 18:52:00,27.0,24.0,30.12,SSE,162,0.0,-999.0,90,-99.99,,,-99.99,,2013-11-25 01:52:00,
2013-11-24 19:21:00,27.0,24.0,30.10,SSE,162,0.0,-999.0,90,-99.99,,,-99.99,,2013-11-25 02:21:00,
2013-11-24 19:42:00,27.0,24.0,30.11,SSE,162,0.0,-999.0,90,-99.99,,,-99.99,,2013-11-25 02:42:00,
2013-11-24 19:52:00,27.0,25.0,30.12,SSE,162,0.0,-999.0,91,-99.99,,,-99.99,,2013-11-25 02:52:00,
2013-11-24 20:11:00,27.0,25.0,30.11,SSE,162,0.0,-999.0,91,-99.99,,,-99.99,,2013-11-25 03:11:00,
2013-11-24 20:21:00,27.0,25.0,30.11,SSE,167,1.0,-999.0,91,-99.99,,,-99.99,,2013-11-25 03:21:00,
2013-11-24 20:43:00,27.0,25.0,30.11,South,184,2.0,-999.0,91,-99.99,,,-99.99,,2013-11-25 03:43:00,
2013-11-24 20:53:00,27.0,25.0,30.11,SSW,199,2.0,-999.0,91,-99.99,,,-99.99,,2013-11-25 03:53:00,
2013-11-24 21:13:00,27.0,25.0,30.11,SSW,199,2.0,-999.0,91,-99.99,,,-99.99,,2013-11-25 04:13:00,
2013-11-24 21:23:00,27.0,25.0,30.11,SSW,199,2.0,-999.0,91,-99.99,,,-99.99,,2013-11-25 04:23:00,
2013-11-24 21:43:00,27.0,25.0,30.10,SSW,199,0.0,-999.0,92,-99.99,,,-99.99,,2013-11-25 04:43:00,
2013-11-24 21:53:00,27.0,25.0,30.10,SSW,199,0.0,-999.0,92,-99.99,,,-99.99,,2013-11-25 04:53:00,
2013-11-24 22:22:00,27.0,25.0,30.09,SSW,205,4.0,-999.0,92,-99.99,,,-99.99,,2013-11-25 05:22:00,
2013-11-24 22:42:00,27.0,25.0,30.09,SSW,212,4.0,-999.0,92,-99.99,,,-99.99,,2013-11-25 05:42:00,
2013-11-24 22:52:00,27.0,25.0,30.09,SSW,212,5.0,-999.0,92,-99.99,,,-99.99,,2013-11-25 05:52:00,
2013-11-24 23:12:00,27.0,25.0,30.09,SW,215,5.0,-999.0,92,-99.99,,,-99.99,,2013-11-25 06:12:00,
2013-11-24 23:21:00,27.0,25.0,30.08,SW,219,5.0,-999.0,92,-99.99,,,-99.99,,2013-11-25 06:21:00,
2013-11-24 23:42:00,27.0,25.0,30.08,SW,219,5.0,-999.0,92,-99.99,,,-99.99,,2013-11-25 06:42:00,
2013-11-24 23:52:00,27.0,25.0,30.08,SW,219,5.0,-999.0,92,-99.99,,,-99.99,,2013-11-25 06:52:00,